Weather History for KHON - October, 2012

Change the Weather History Date:

Wednesday, October 10, 2012

  Actual Average Record
Temperature  
Mean Temperature 46 °F 50 °F  
Max Temperature 67 °F 63 °F 92 °F (1928)
Min Temperature 24 °F 38 °F 15 °F (1987)
Degree Days  
Heating Degree Days 19 15  
Month to date heating degree days 184 128  
Since 1 July heating degree days 358 324  
Cooling Degree Days 0 0  
Month to date cooling degree days 0 0  
Year to date cooling degree days 1083 738  
Moisture  
Dew Point 25 °F    
Average Humidity 53    
Maximum Humidity 81    
Minimum Humidity 24    
Precipitation  
Precipitation 0.00 in 0.06 in 2.95 in (1961)
Month to date precipitation T 0.65  
Year to date precipitation 17.27 20.37  
Snow  
Snow 0.00 in 0.00 in T in (1977)
Month to date snowfall 0.0 0.1  
Since 1 July snowfall 0.0 0.1  
Since 1 September snowfall 0.0 0.1  
Snow Depth 0.00 in    
Sea Level Pressure  
Sea Level Pressure 30.02 in    
Wind  
Wind Speed 8 mph (SW)    
Max Wind Speed 18 mph    
Max Gust Speed 26 mph    
Visibility 10 miles    
Events      
T = Trace of Precipitation, MM = Missing Value Source: NWS Daily Summary

Daily Weather History Graph

Daily Weather History Graph

Search for Another Location

Airport or City:

Trip Planner

Search our weather history database for the weather conditions in past years. The results will help you decide how hot, cold, wet, or windy it might be!

Date:

Astronomy

Oct. 10, 2012 Rise Set
Actual Time 7:42 AM CDT 6:56 PM CDT
Civil Twilight 7:13 AM CDT 7:25 PM CDT
Nautical Twilight 6:39 AM CDT 7:59 PM CDT
Astronomical Twilight 6:05 AM CDT 8:32 PM CDT
Moon 2:08 AM CDT (10/10) 4:09 PM CDT (10/10)
Length of Visible Light 12h 12m
Length of Day
11h 14m
Waning Crescent, 27% of the Moon is Illuminated
Oct 10
Waning Crescent
Oct 15
New
Oct 21
First Quarter
Oct 29
Full
Nov 6
Last Quarter

Hourly Weather History & Observations

Time (CDT) Temp. Windchill Dew Point Humidity Pressure Visibility Wind Dir Wind Speed Gust Speed Precip Events Conditions
12:55 AM 27.0 °F 19.5 °F 19.9 °F 75% 30.14 in 10.0 mi WNW 6.9 mph - N/A   Clear
1:55 AM 25.0 °F 17.1 °F 19.0 °F 78% 30.15 in 10.0 mi West 6.9 mph - N/A   Clear
2:55 AM 25.0 °F 18.1 °F 19.9 °F 81% 30.15 in 10.0 mi WNW 5.8 mph - N/A   Clear
3:55 AM 28.0 °F 21.7 °F 21.9 °F 78% 30.14 in 10.0 mi WSW 5.8 mph - N/A   Clear
4:55 AM 26.1 °F 18.4 °F 19.9 °F 78% 30.14 in 10.0 mi SW 6.9 mph - N/A   Clear
5:55 AM 26.1 °F - 19.0 °F 75% 30.15 in 10.0 mi Calm Calm - N/A   Clear
6:55 AM 25.0 °F 20.7 °F 19.9 °F 81% 30.15 in 10.0 mi SSW 3.5 mph - N/A   Clear
7:55 AM 26.1 °F 21.9 °F 19.9 °F 78% 30.16 in 10.0 mi South 3.5 mph - N/A   Clear
8:55 AM 30.9 °F - 23.0 °F 72% 30.16 in 10.0 mi Calm Calm - N/A   Clear
9:55 AM 39.0 °F 34.0 °F 23.0 °F 53% 30.14 in 10.0 mi SSW 6.9 mph - N/A   Clear
10:55 AM 48.0 °F - 24.1 °F 39% 30.13 in 10.0 mi SSW 8.1 mph - N/A   Clear
11:55 AM 55.9 °F - 23.0 °F 28% 30.08 in 10.0 mi WSW 12.7 mph 16.1 mph N/A   Clear
12:55 PM 57.9 °F - 21.9 °F 25% 30.06 in 10.0 mi WSW 10.4 mph 19.6 mph N/A   Clear
1:55 PM 61.0 °F - 24.1 °F 24% 30.01 in 10.0 mi SSW 11.5 mph 19.6 mph N/A   Clear
2:55 PM 64.0 °F - 27.0 °F 25% 29.96 in 10.0 mi SSW 15.0 mph 25.3 mph N/A   Clear
3:55 PM 64.9 °F - 28.0 °F 25% 29.93 in 10.0 mi SSW 17.3 mph 23.0 mph N/A   Clear
4:55 PM 66.0 °F - 28.9 °F 25% 29.89 in 10.0 mi SW 11.5 mph 23.0 mph N/A   Clear
5:55 PM 66.0 °F - 28.9 °F 25% 29.87 in 10.0 mi SW 9.2 mph - N/A   Clear
6:55 PM 61.0 °F - 28.9 °F 30% 29.87 in 10.0 mi SSW 5.8 mph - N/A   Clear
7:55 PM 57.9 °F - 30.0 °F 35% 29.86 in 10.0 mi South 10.4 mph - N/A   Clear
8:55 PM 57.0 °F - 30.9 °F 37% 29.85 in 10.0 mi SSW 11.5 mph - N/A   Clear
9:55 PM 53.1 °F - 30.9 °F 43% 29.84 in 10.0 mi South 6.9 mph - N/A   Clear
10:55 PM 52.0 °F - 30.9 °F 45% 29.82 in 10.0 mi South 10.4 mph - N/A   Clear
11:55 PM 50.0 °F - 30.9 °F 48% 29.81 in 10.0 mi SSW 10.4 mph - N/A   Clear